Clair, ciel sans nuage
Clair, ciel sans nuage
Clair, ciel sans nuage
Clair, ciel sans nuage
Clair, ciel sans nuage
Clair, ciel sans nuage
Clair, ciel sans nuage
(°C)
11°
11°
11°
11°
12°
12°
12°
12°
12°
12°
13°
13°
13°
13°
(°C)
NNE
N
N
N
N
N
N
(km/h)
22-39
22-38
22-37
22-37
22-36
21-36
21-36
(mm)
0
0
0
0
0
0
0
(%)
0
0
0
0
0
0
0

Élévation du soleil

/ 51.7°
sun-icon
UV 4
03:15
20:03
Pleine lune (176°)
20:38
02:37

METAR pour 55.61°N 49.28°E (UWKD)

Heure Conditions Température/
Point de rosée
Vent Visibilité Météo Nuages Pression Changement Brut
VFR 11°C / -8°C 10º variable 330º to 050º 12kt 9700m - Clouds and Visibility OK 1027 No Significant change UWKD 230700Z 01006MPS 330V050 CAVOK 11/M08 Q1027 R11/CLRD70 NOSIG RMK QFE760/1014
VFR 11°C / -7°C 10º 14kt 9700m - Clouds and Visibility OK 1027 No Significant change UWKD 230630Z 01007MPS CAVOK 11/M07 Q1027 R11/CLRD70 NOSIG RMK QFE760/1014
VFR 10°C / -6°C 10º 14kt 9700m - Clouds and Visibility OK 1027 No Significant change UWKD 230600Z 01007MPS CAVOK 10/M06 Q1027 R11/CLRD70 NOSIG RMK QFE760/1013
VFR 10°C / -5°C 30º 12kt 9700m - Clouds and Visibility OK 1027 No Significant change UWKD 230530Z 03006MPS CAVOK 10/M05 Q1027 R11/CLRD70 NOSIG RMK QFE760/1013
VFR 9°C / -6°C 10º 12kt 9700m - Clouds and Visibility OK 1027 No Significant change UWKD 230500Z 01006MPS CAVOK 09/M06 Q1027 R29/CLRD70 NOSIG RMK QFE759/1012
VFR 8°C / -4°C 20º 12kt 9700m - Clouds and Visibility OK 1027 No Significant change UWKD 230430Z 02006MPS CAVOK 08/M04 Q1027 R29/CLRD70 NOSIG RMK QFE759/1012
VFR 8°C / -4°C 10º 14kt 9700m - Clouds and Visibility OK 1026 No Significant change UWKD 230400Z 01007MPS CAVOK 08/M04 Q1026 R29/CLRD70 NOSIG RMK QFE758/1011
VFR 7°C / -5°C 30º 14kt 9700m - Clouds and Visibility OK 1026 No Significant change UWKD 230330Z 03007MPS CAVOK 07/M05 Q1026 R29/CLRD70 NOSIG RMK QFE758/1011
VFR 6°C / -4°C 30º 14kt 9700m - Clouds and Visibility OK 1026 No Significant change UWKD 230300Z 03007MPS CAVOK 06/M04 Q1026 R29/CLRD70 NOSIG RMK QFE758/1011
VFR 6°C / -4°C 30º 14kt 9700m - Clouds and Visibility OK 1025 No Significant change UWKD 230230Z 03007MPS CAVOK 06/M04 Q1025 R29/70D NOSIG RMK QFE758/1010
VFR 5°C / -4°C 20º 12kt 9700m - Clouds and Visibility OK 1025 No Significant change UWKD 230200Z 02006MPS CAVOK 05/M04 Q1025 R29/CLRD70 NOSIG RMK QFE757/1010
VFR 4°C / -4°C 20º 10kt 9700m - Clouds and Visibility OK 1024 No Significant change UWKD 230130Z 02005MPS CAVOK 04/M04 Q1024 R29/CLRD70 NOSIG RMK QFE757/1009
VFR 3°C / -4°C 20º 10kt 9700m - Clouds and Visibility OK 1024 No Significant change UWKD 230100Z 02005MPS CAVOK 03/M04 Q1024 R29/CLRD70 NOSIG RMK QFE757/1009
VFR 4°C / -4°C 20º 10kt 9700m - Clouds and Visibility OK 1024 No Significant change UWKD 230030Z 02005MPS CAVOK 04/M04 Q1024 R29/70D NOSIG RMK QFE757/1009
VFR 4°C / -4°C 20º 8kt 9700m - Clouds and Visibility OK 1024 No Significant change UWKD 230000Z 02004MPS CAVOK 04/M04 Q1024 R29/70D NOSIG RMK QFE756/1009
VFR 4°C / -3°C 30º 10kt 9700m - Clouds and Visibility OK 1024 No Significant change UWKD 222330Z 03005MPS CAVOK 04/M03 Q1024 R29/CLRD70 NOSIG RMK QFE756/1009
VFR 4°C / -3°C 30º 10kt 9700m - Clouds and Visibility OK 1023 No Significant change UWKD 222300Z 03005MPS CAVOK 04/M03 Q1023 R29/70D NOSIG RMK QFE756/1008
VFR 5°C / -2°C 30º 10kt 9700m - Clouds and Visibility OK 1023 No Significant change UWKD 222230Z 03005MPS CAVOK 05/M02 Q1023 R29/CLRD70 NOSIG RMK QFE756/1008
VFR 5°C / -3°C 30º 8kt 9700m - Clouds and Visibility OK 1023 No Significant change UWKD 222200Z 03004MPS CAVOK 05/M03 Q1023 R29/CLRD70 NOSIG RMK QFE756/1008
VFR 6°C / -2°C 20º 8kt 9700m - Clouds and Visibility OK 1023 No Significant change UWKD 222130Z 02004MPS CAVOK 06/M02 Q1023 R29/CLRD70 NOSIG RMK QFE756/1008
VFR 7°C / -2°C 30º 8kt 9700m - Clouds and Visibility OK 1023 No Significant change UWKD 222100Z 03004MPS CAVOK 07/M02 Q1023 R29/CLRD70 NOSIG RMK QFE756/1008
VFR 8°C / -2°C 30º 8kt 9700m - Clouds and Visibility OK 1023 No Significant change UWKD 222030Z 03004MPS CAVOK 08/M02 Q1023 R29/CLRD70 NOSIG RMK QFE756/1008
VFR 8°C / -2°C 30º 8kt 9700m - Clouds and Visibility OK 1022 No Significant change UWKD 222000Z 03004MPS CAVOK 08/M02 Q1022 R29/CLRD70 NOSIG RMK QFE756/1008
VFR 9°C / -2°C 40º 8kt 9700m - Clouds and Visibility OK 1022 No Significant change UWKD 221930Z 04004MPS CAVOK 09/M02 Q1022 R29/CLRD70 NOSIG RMK QFE755/1007

VFR

11°C / -8°C

[Plus]
Vent 10º variable 330º to 050º 12kt
Visibilité 9700m
Météo -
Nuages Clouds and Visibility OK
Pression 1027
Changement No Significant change
Brut UWKD 230700Z 01006MPS 330V050 CAVOK 11/M08 Q1027 R11/CLRD70 NOSIG RMK QFE760/1014

VFR

11°C / -7°C

[Plus]
Vent 10º 14kt
Visibilité 9700m
Météo -
Nuages Clouds and Visibility OK
Pression 1027
Changement No Significant change
Brut UWKD 230630Z 01007MPS CAVOK 11/M07 Q1027 R11/CLRD70 NOSIG RMK QFE760/1014

VFR

10°C / -6°C

[Plus]
Vent 10º 14kt
Visibilité 9700m
Météo -
Nuages Clouds and Visibility OK
Pression 1027
Changement No Significant change
Brut UWKD 230600Z 01007MPS CAVOK 10/M06 Q1027 R11/CLRD70 NOSIG RMK QFE760/1013

VFR

10°C / -5°C

[Plus]
Vent 30º 12kt
Visibilité 9700m
Météo -
Nuages Clouds and Visibility OK
Pression 1027
Changement No Significant change
Brut UWKD 230530Z 03006MPS CAVOK 10/M05 Q1027 R11/CLRD70 NOSIG RMK QFE760/1013

VFR

9°C / -6°C

[Plus]
Vent 10º 12kt
Visibilité 9700m
Météo -
Nuages Clouds and Visibility OK
Pression 1027
Changement No Significant change
Brut UWKD 230500Z 01006MPS CAVOK 09/M06 Q1027 R29/CLRD70 NOSIG RMK QFE759/1012

VFR

8°C / -4°C

[Plus]
Vent 20º 12kt
Visibilité 9700m
Météo -
Nuages Clouds and Visibility OK
Pression 1027
Changement No Significant change
Brut UWKD 230430Z 02006MPS CAVOK 08/M04 Q1027 R29/CLRD70 NOSIG RMK QFE759/1012

VFR

8°C / -4°C

[Plus]
Vent 10º 14kt
Visibilité 9700m
Météo -
Nuages Clouds and Visibility OK
Pression 1026
Changement No Significant change
Brut UWKD 230400Z 01007MPS CAVOK 08/M04 Q1026 R29/CLRD70 NOSIG RMK QFE758/1011

VFR

7°C / -5°C

[Plus]
Vent 30º 14kt
Visibilité 9700m
Météo -
Nuages Clouds and Visibility OK
Pression 1026
Changement No Significant change
Brut UWKD 230330Z 03007MPS CAVOK 07/M05 Q1026 R29/CLRD70 NOSIG RMK QFE758/1011

VFR

6°C / -4°C

[Plus]
Vent 30º 14kt
Visibilité 9700m
Météo -
Nuages Clouds and Visibility OK
Pression 1026
Changement No Significant change
Brut UWKD 230300Z 03007MPS CAVOK 06/M04 Q1026 R29/CLRD70 NOSIG RMK QFE758/1011

VFR

6°C / -4°C

[Plus]
Vent 30º 14kt
Visibilité 9700m
Météo -
Nuages Clouds and Visibility OK
Pression 1025
Changement No Significant change
Brut UWKD 230230Z 03007MPS CAVOK 06/M04 Q1025 R29/70D NOSIG RMK QFE758/1010

VFR

5°C / -4°C

[Plus]
Vent 20º 12kt
Visibilité 9700m
Météo -
Nuages Clouds and Visibility OK
Pression 1025
Changement No Significant change
Brut UWKD 230200Z 02006MPS CAVOK 05/M04 Q1025 R29/CLRD70 NOSIG RMK QFE757/1010

VFR

4°C / -4°C

[Plus]
Vent 20º 10kt
Visibilité 9700m
Météo -
Nuages Clouds and Visibility OK
Pression 1024
Changement No Significant change
Brut UWKD 230130Z 02005MPS CAVOK 04/M04 Q1024 R29/CLRD70 NOSIG RMK QFE757/1009

VFR

3°C / -4°C

[Plus]
Vent 20º 10kt
Visibilité 9700m
Météo -
Nuages Clouds and Visibility OK
Pression 1024
Changement No Significant change
Brut UWKD 230100Z 02005MPS CAVOK 03/M04 Q1024 R29/CLRD70 NOSIG RMK QFE757/1009

VFR

4°C / -4°C

[Plus]
Vent 20º 10kt
Visibilité 9700m
Météo -
Nuages Clouds and Visibility OK
Pression 1024
Changement No Significant change
Brut UWKD 230030Z 02005MPS CAVOK 04/M04 Q1024 R29/70D NOSIG RMK QFE757/1009

VFR

4°C / -4°C

[Plus]
Vent 20º 8kt
Visibilité 9700m
Météo -
Nuages Clouds and Visibility OK
Pression 1024
Changement No Significant change
Brut UWKD 230000Z 02004MPS CAVOK 04/M04 Q1024 R29/70D NOSIG RMK QFE756/1009

VFR

4°C / -3°C

[Plus]
Vent 30º 10kt
Visibilité 9700m
Météo -
Nuages Clouds and Visibility OK
Pression 1024
Changement No Significant change
Brut UWKD 222330Z 03005MPS CAVOK 04/M03 Q1024 R29/CLRD70 NOSIG RMK QFE756/1009

VFR

4°C / -3°C

[Plus]
Vent 30º 10kt
Visibilité 9700m
Météo -
Nuages Clouds and Visibility OK
Pression 1023
Changement No Significant change
Brut UWKD 222300Z 03005MPS CAVOK 04/M03 Q1023 R29/70D NOSIG RMK QFE756/1008

VFR

5°C / -2°C

[Plus]
Vent 30º 10kt
Visibilité 9700m
Météo -
Nuages Clouds and Visibility OK
Pression 1023
Changement No Significant change
Brut UWKD 222230Z 03005MPS CAVOK 05/M02 Q1023 R29/CLRD70 NOSIG RMK QFE756/1008

VFR

5°C / -3°C

[Plus]
Vent 30º 8kt
Visibilité 9700m
Météo -
Nuages Clouds and Visibility OK
Pression 1023
Changement No Significant change
Brut UWKD 222200Z 03004MPS CAVOK 05/M03 Q1023 R29/CLRD70 NOSIG RMK QFE756/1008

VFR

6°C / -2°C

[Plus]
Vent 20º 8kt
Visibilité 9700m
Météo -
Nuages Clouds and Visibility OK
Pression 1023
Changement No Significant change
Brut UWKD 222130Z 02004MPS CAVOK 06/M02 Q1023 R29/CLRD70 NOSIG RMK QFE756/1008

VFR

7°C / -2°C

[Plus]
Vent 30º 8kt
Visibilité 9700m
Météo -
Nuages Clouds and Visibility OK
Pression 1023
Changement No Significant change
Brut UWKD 222100Z 03004MPS CAVOK 07/M02 Q1023 R29/CLRD70 NOSIG RMK QFE756/1008

VFR

8°C / -2°C

[Plus]
Vent 30º 8kt
Visibilité 9700m
Météo -
Nuages Clouds and Visibility OK
Pression 1023
Changement No Significant change
Brut UWKD 222030Z 03004MPS CAVOK 08/M02 Q1023 R29/CLRD70 NOSIG RMK QFE756/1008

VFR

8°C / -2°C

[Plus]
Vent 30º 8kt
Visibilité 9700m
Météo -
Nuages Clouds and Visibility OK
Pression 1022
Changement No Significant change
Brut UWKD 222000Z 03004MPS CAVOK 08/M02 Q1022 R29/CLRD70 NOSIG RMK QFE756/1008

VFR

9°C / -2°C

[Plus]
Vent 40º 8kt
Visibilité 9700m
Météo -
Nuages Clouds and Visibility OK
Pression 1022
Changement No Significant change
Brut UWKD 221930Z 04004MPS CAVOK 09/M02 Q1022 R29/CLRD70 NOSIG RMK QFE755/1007

TAF pour 55.61°N 49.28°E (UWKD)

From till


Maximum Temperature 13ºC on . Minimum Temperature 4ºC on .
From till Wind 30º 10kt. Gust 23kt. Visibility 9700m. Scattered Clouds 3000ft.
Becoming from till

Brut: TAF UWKD 230452Z 2306/2406 03005G12MPS 9999 SCT030 TX13/2311Z TN04/2403Z BECMG 2318/2320 34003MPS

Radar et prévision de précipitation à court terme pour 55.61°N 49.28°E

Bruine
Légère
Modéré
Fort
Très fort
Grêle

Le marqueur est placé sur 55.61°N 49.28°E. Cette animation montre le radar des précipitations pour la plage horaire sélectionnée, ainsi qu'une 2h prévision. Les croix orange indiquent la foudre. Données fournies par nowcast.de (disponibles aux États-Unis, en Europe et en Australie). Une bruine ou une légère chute de neige peut être invisible pour le radar. L'intensité des précipitations est codée par couleur, allant du turquoise au rouge.

Les images satellites et les pluies actuelles pour 55.61°N 49.28°E

Le marqueur est placé sur 55.61°N 49.28°E. [Plus]

L'image satellite en temps réel combine la lumière visible pendant la journée et le rayonnement infrarouge pendant la nuit. La nuit, l'image n'est pas sombre car le rayonnement infrarouge permet de détecter les différences de température. Malheureusement, les nuages bas et le brouillard sont difficiles à distinguer des températures au sol et peuvent donc être presque invisibles pendant la nuit. Les images des satellites Météosat pour l'Europe sont mises à jour en temps réel toutes les 5 minutes. Les images GOES-16/GOES-17 (Amérique du Nord et du Sud) et Himawari (Asie) sont mises à jour toutes les 10 minutes.

Les précipitations sont estimées à partir de radars et de satellites. Les estimations des précipitations par satellite sont moins précises la nuit que le jour.

© 2024 meteoblue, NOAA Satellites GOES-16 and EUMETSAT. Données de foudre fournies par nowcast.

Retour vers le haut
×
Salut,
Il semble que vous utilisiez un logiciel antipub.

La publicité est essentielle pour maintenir notre site web gratuit avec des détails et précision uniques.

Veuillez mettre www.meteoblue.com sur la liste blanche de votre bloqueur de publicité ou envisager d'acheter l'un de nos produits :

Vous avez déjà un abonnement ?
Dans ce cas, veuillez vous connecter.